Location: Harbor View
(36.2448°N, 86.5797°W)
Time: 09:04:19
(UTC+00:00)

COSMO-SKYMED 1 - Pass Details

Date: 03 March 2021
Orbit: 621 x 623 km, 97.9° (Epoch: 13 April)

Event Time Altitude Azimuth Distance (km) Brightness Sun altitude
Rises 10:48:37 0° 158° (SSE) 2,889 6.2 -17.9°
Reaches altitude 10° 10:50:48 10° 155° (SSE) 1,987 5.4 -17.5°
Maximum altitude 10:55:04 62° 75° (ENE) 705 3.1 -16.6°
Drops below altitude 10° 10:59:22 10° 355° (N) 2,001 5.2 -15.8°
Sets 11:01:35 0° 352° (N) 2,911 6.0 -15.3°
